Retour au catalogue

BREEZE-M DEB

TANK

ActifHEO
NORAD 42751·DEBRIS·🇷🇺 Russia

Lancé Jun 8, 2017 depuis Baikonur Cosmodrome

Loading…

Prochains Passages (prochaines 24 heures)

TLE

FraisSource: Space-Track

Époque: Sep 14, 2026, 16:48 UTC

1 42751U 17032C   26257.70041182  .00003455  00000-0  63887-3 0  9999
2 42751  49.6877 163.1596 4533832 337.1946   7.8183  6.39213976211821

Suivez BREEZE-M DEB en temps réel avec AllMySat

Download on the App Store